Location: Beert
(50.7391°N, 4.1791°E)
Time: 10:42:58
(UTC+00:00)

Daily predictions for brighter satellites

Satellite Brightness Start Highest point End
(mag) Time Altitude Azimuth Time Altitude Azimuth Time Altitude Azimuth
Meteor 1-24 Rocket 4.5 16:53:11 10° SSW 16:58:26 54° WNW 17:03:53 10° N
Cosmos 2227 Rocket 2.3 16:53:52 10° SSW 16:59:27 63° ESE 17:05:02 10° NE
Cosmos 1626 3.2 17:01:28 10° SSW 17:05:04 47° WNW 17:08:41 10° N
Okean-O 2.8 17:02:01 10° SE 17:06:18 51° ENE 17:10:37 10° N
AQUARIUS 4.2 17:02:35 10° SSE 17:07:04 90° SSE 17:11:37 10° NNW
Cosmos 1943 4.0 17:07:51 10° NNW 17:12:49 30° NE 17:17:47 10° ESE
Cosmos 2251 Rocket 3.5 17:09:57 10° NNW 17:15:16 73° ENE 17:20:36 10° SSE
Cosmos 1727 Rocket 4.3 17:10:13 10° N 17:16:08 44° ENE 17:21:59 10° SE
Starlink T 3.1 17:13:37 10° WNW 17:16:50 61° N 17:19:57 11° E
YAOGAN 1 3.3 17:13:36 10° SE 17:17:22 30° ENE 17:21:11 10° N
Starlink N 3.1 17:15:45 10° WNW 17:18:58 61° N 17:21:59 11° E
Starlink AS 2.8 17:17:26 10° WNW 17:20:21 60° N 17:22:58 12° E
Starlink BA 2.8 17:17:38 10° WNW 17:20:33 60° N 17:23:10 12° E
SL-8 Rocket 4.1 17:14:28 10° S 17:20:38 61° E 17:26:48 10° NNE
Starlink AU 2.8 17:17:53 10° WNW 17:20:47 60° N 17:23:24 12° E
Starlink AT 2.8 17:18:07 10° WNW 17:21:01 60° N 17:23:37 12° E
Starlink BB 2.8 17:18:19 10° WNW 17:21:13 60° N 17:23:49 12° E
Starlink Q 3.1 17:18:06 10° WNW 17:21:20 62° N 17:24:16 12° E
Starlink BC 2.8 17:18:32 10° WNW 17:21:27 61° N 17:24:02 12° E
Starlink BK 2.8 17:18:46 10° WNW 17:21:41 61° N 17:24:15 12° E
Starlink AY 2.8 17:19:00 10° WNW 17:21:55 61° N 17:24:29 13° E
Starlink AW 2.8 17:19:14 10° WNW 17:22:08 61° N 17:24:42 13° E
Starlink BJ 2.8 17:19:26 10° WNW 17:22:20 61° N 17:24:53 13° E
Starlink AV 2.8 17:19:40 10° WNW 17:22:36 61° NNE 17:25:08 13° E
Starlink BD 2.8 17:19:54 10° WNW 17:22:49 61° N 17:25:21 13° E
Starlink BE 2.8 17:20:05 10° WNW 17:23:01 61° N 17:25:34 13° E
Starlink BM 2.8 17:20:21 10° WNW 17:23:16 61° N 17:25:46 13° E
USA 102 4.2 17:17:34 10° SSE 17:23:17 72° WSW 17:26:04 10° NW
Starlink AX 2.8 17:20:35 10° WNW 17:23:30 61° NNE 17:26:00 13° E
Starlink P 3.0 17:20:19 10° WNW 17:23:32 63° N 17:26:23 13° E
Starlink BH 2.8 17:20:48 10° WNW 17:23:43 62° N 17:26:12 13° E
Starlink AZ 2.8 17:21:01 10° WNW 17:23:56 62° N 17:26:25 13° E
Starlink BG 2.8 17:21:15 10° WNW 17:24:10 62° N 17:26:38 13° E
Starlink BF 2.8 17:21:28 10° WNW 17:24:23 62° NNE 17:26:51 13° E
Starlink BL 2.8 17:21:39 10° WNW 17:24:36 62° NNE 17:27:05 13° E
Starlink AH 2.8 17:21:56 10° WNW 17:24:51 62° N 17:27:18 14° E
Cosmos 1328 4.1 17:21:02 10° SSE 17:24:52 46° E 17:28:44 10° NNE
Envisat 3.0 17:19:55 10° SSE 17:25:00 89° ENE 17:30:08 10° NNW
Starlink AC 2.8 17:22:09 10° WNW 17:25:04 62° NNE 17:27:30 14° E
Starlink X 2.8 17:22:22 10° WNW 17:25:18 62° NNE 17:27:43 14° E
Starlink AE 2.8 17:22:33 10° WNW 17:25:30 63° NNE 17:27:59 14° E
Starlink U 3.0 17:22:30 10° WNW 17:25:44 64° N 17:28:30 13° E
Starlink Z 2.8 17:22:50 10° WNW 17:25:45 62° NNE 17:28:10 14° E
Starlink AQ 2.8 17:22:50 10° WNW 17:25:45 62° NNE 17:28:10 14° E
USA 267 3.4 17:19:25 10° ENE 17:25:56 67° SE 17:32:27 10° SW
Starlink AK 2.8 17:23:03 10° WNW 17:25:58 63° NNE 17:28:22 14° E
H-2A R/B 3.7 17:24:06 11° ENE 17:26:08 14° NE 17:28:45 10° NNE
Starlink AL 2.8 17:23:17 10° WNW 17:26:11 63° N 17:28:35 14° E
Starlink AD 2.8 17:23:30 10° WNW 17:26:25 63° NNE 17:28:48 14° E
Starlink Y 2.8 17:23:58 10° WNW 17:26:53 63° NNE 17:29:15 14° E
Starlink AG 2.8 17:24:11 10° WNW 17:27:06 63° NNE 17:29:27 14° E
Starlink W 2.8 17:24:22 10° WNW 17:27:18 63° N 17:29:42 14° E
Starlink AJ 2.7 17:24:37 10° WNW 17:27:33 63° NNE 17:29:53 15° E
Meteor 1-21 Rocket 4.3 17:21:57 10° S 17:27:37 90° ESE 17:33:27 10° NNE
Starlink B 3.0 17:24:43 10° WNW 17:27:58 65° NNE 17:30:39 14° E
Starlink AM 2.7 17:25:04 10° WNW 17:27:59 63° NNE 17:30:18 15° E
Starlink AP 2.7 17:25:18 10° WNW 17:28:13 64° NNE 17:30:32 15° E
Starlink AA 2.7 17:25:31 10° WNW 17:28:27 64° NNE 17:30:45 15° E
Starlink AF 2.7 17:25:45 10° WNW 17:28:41 64° NNE 17:30:59 15° E
Starlink AB 2.7 17:25:58 10° WNW 17:28:53 64° NNE 17:31:10 15° E
Starlink AN 2.7 17:26:12 10° WNW 17:29:07 64° NNE 17:31:24 15° E
FengYun 1-2 T 4.2 17:23:40 10° SSE 17:29:16 70° ENE 17:34:56 10° NNW
USA 32 4.1 17:24:12 10° S 17:29:26 87° W 17:34:43 10° N
PSLV R/B 4.3 17:26:23 10° N 17:30:27 66° WNW 17:34:32 10° SSW
ISS -3.7 17:27:41 10° WSW 17:31:04 82° SSE 17:33:40 16° ENE
Cosmos 44 3.0 17:27:57 10° SW 17:32:30 90° SE 17:36:50 10° NE
CZ-4 R/B 1.6 17:30:21 10° SE 17:34:20 51° ENE 17:38:25 10° N
ATLAS CENTAUR R/B 2.1 17:36:27 10° NW 17:40:25 52° SW 17:44:06 10° SSE
ATLAS 5 CENTAUR R/B 3.6 17:37:17 10° NW 17:40:56 21° N 17:44:44 11° NE
Cosmos 407 Rocket 4.0 17:37:31 10° NNW 17:42:30 39° NE 17:47:23 10° SE
Starlink D 2.9 17:41:07 10° WNW 17:44:23 73° NNE 17:46:27 21° E
CSL-04 Rocket 3.8 17:39:57 10° SE 17:45:21 56° ENE 17:50:48 10° N
Cosmos 1455 2.9 17:41:54 10° NNW 17:45:39 57° W 17:49:19 10° S
Cosmos 1703 3.2 17:42:36 10° S 17:46:34 77° E 17:50:33 10° NNE
Starlink S 2.9 17:43:24 10° WNW 17:46:41 74° NNE 17:48:39 22° E
Cosmos 1953 Rocket 3.6 17:43:05 10° S 17:47:34 85° W 17:52:06 10° N
Cosmos 2341 Rocket 4.4 17:41:28 10° SSW 17:47:48 70° WNW 17:54:08 10° N
Starlink C 2.9 17:45:41 10° WNW 17:48:58 76° NNE 17:50:51 23° E
Starlink AR 2.4 17:46:26 10° WNW 17:49:09 83° NNE 17:50:26 27° ESE
COSMO-SKYMED 1 2.6 17:45:03 10° NNE 17:49:22 60° ESE 17:53:40 10° S
Cosmos 1842 Rocket 3.6 17:45:00 10° N 17:49:25 57° ENE 17:53:50 10° SSE
Starlink E 2.9 17:47:59 10° WNW 17:51:16 77° NNE 17:53:03 24° E
Starlink J 2.9 17:50:18 10° WNW 17:53:35 79° NNE 17:55:18 26° E
Cosmos 1821 Rocket 4.5 17:49:28 10° SSE 17:55:13 38° E 18:00:55 10° NNE
Starlink V 2.9 17:52:37 10° WNW 17:55:55 81° NNE 17:57:31 27° ESE
Cosmos 864 Rocket 4.4 17:50:06 10° S 17:56:13 82° E 18:02:25 10° NNE
Meteor 2-10 Rocket 4.3 17:53:03 10° NNW 17:58:10 53° W 18:03:06 10° S
Shenzhou-11 Module 4.4 17:56:46 10° SW 17:58:15 14° S 17:59:43 10° SSE
Starlink H 2.9 17:54:58 10° WNW 17:58:16 82° NNE 17:59:47 29° ESE
Starlink F 2.9 17:57:17 10° WNW 18:00:34 84° NNE 18:02:01 31° ESE
Meteor 2-12 Rocket 4.5 17:55:41 10° S 18:01:33 56° E 18:07:28 10° NNE
USA 234 3.8 17:55:59 10° SE 18:02:24 58° SW 18:08:51 10° WNW
Cosmos 1356 Rocket 3.5 17:58:30 10° NNW 18:02:34 76° W 18:06:41 10° S
Starlink G 2.9 17:59:37 10° WNW 18:02:54 86° NNE 18:04:16 33° ESE
ERBS 3.5 18:00:12 10° WNW 18:03:14 31° NNW 18:04:33 23° NNE
Starlink L 2.9 18:01:57 10° WNW 18:05:16 88° NNE 18:06:31 35° ESE
USA 116 3.5 18:05:44 37° ENE 18:06:12 40° E 18:09:10 10° S
ADEOS Rocket 3.8 18:00:02 10° NNE 18:06:24 39° E 18:13:15 10° SSE
Starlink A 2.9 18:04:19 10° WNW 18:07:37 90° ENE 18:08:47 37° ESE
Cosmos 2218 Rocket 4.2 18:01:55 10° SSW 18:08:18 78° WNW 18:14:45 10° N
Ariane Rocket 3.3 18:03:45 10° SE 18:08:29 41° ENE 18:13:16 10° N
Starlink R 2.9 18:06:41 10° WNW 18:09:59 88° SSW 18:11:04 39° ESE
CZ-2D R/B 3.1 18:08:18 10° SSE 18:12:08 74° ENE 18:16:01 10° N
Starlink K 2.9 18:09:02 10° WNW 18:12:21 86° SSW 18:13:20 42° ESE
SL-08 R/B 4.5 18:08:00 10° S 18:14:21 82° E 18:20:51 10° N
Starlink M 2.9 18:11:23 10° WNW 18:14:41 84° SSW 18:15:36 45° ESE
Cosmos 1869 3.5 18:11:09 10° N 18:15:01 46° ENE 18:18:28 12° SSE
SL-16 R/B 4.0 18:10:16 10° NW 18:15:19 34° WSW 18:20:19 10° SSW
Cosmos 614 Rocket 3.9 18:10:17 10° NNW 18:15:31 72° ENE 18:20:44 10° SSE
Cosmos 2221 2.4 18:11:28 10° N 18:15:46 78° E 18:20:04 10° SSE
SL-8 R/B 3.8 18:13:36 10° W 18:18:24 68° S 18:20:30 33° ESE
Cosmos 2123 Rocket 4.2 18:13:19 10° N 18:19:23 45° ENE 18:25:22 10° SE
Cosmos 44 Rocket 3.3 18:18:50 10° SSW 18:23:31 57° SE 18:25:12 36° ENE
Cosmos 1076 Rocket 3.8 18:19:50 10° SSE 18:23:53 41° E 18:24:11 40° E
USA 238 DEB 4.2 18:18:05 10° S 18:24:08 38° ESE 18:26:25 30° E
Cosmos 2227 4.4 18:18:40 10° S 18:24:12 51° ESE 18:27:07 27° NE
Cosmos 1000 Rocket 4.4 18:18:01 10° N 18:24:14 74° E 18:30:29 10° SSE
USA 238 4.2 18:18:14 10° S 18:24:15 37° ESE 18:26:28 30° E
Cosmos 1934 Rocket 4.3 18:19:18 10° SSE 18:24:50 38° E 18:30:23 10° NNE
Cosmos 1939 Rocket 2.9 18:21:22 10° SSE 18:25:19 81° WSW 18:29:23 10° NNW
Cosmos 2082 4.3 18:20:24 10° SW 18:25:55 54° NW 18:31:27 10° NNE
BREEZE-M DEB (TANK) 2.6 18:24:13 10° WSW 18:26:23 50° SSE 18:26:23 50° SSE
ARGOS 3.7 18:27:20 34° ENE 18:27:52 35° ENE 18:32:43 10° N
Cosmos 1603 3.8 18:23:13 10° NNW 18:28:54 79° WSW 18:34:31 10° SSE
Cosmos 2056 Rocket 4.0 18:24:35 10° SSE 18:29:24 37° ESE 18:29:44 36° E
Cosmos 2297 Rocket 3.6 18:25:06 10° WSW 18:30:13 34° NW 18:35:22 10° NNE
Cosmos 2239 Rocket 4.5 18:26:15 10° S 18:32:26 61° E 18:38:40 10° NNE
CZ-2C R/B 3.8 18:32:11 35° ENE 18:32:38 36° ENE 18:37:49 10° N
Cosmos 1023 Rocket 4.4 18:27:59 10° NNW 18:33:17 68° ENE 18:36:45 21° SE
Cosmos 2263 Rocket 2.3 18:28:59 10° S 18:34:17 48° ESE 18:35:48 38° ENE
Cosmos 2227 Rocket 3.8 18:38:57 10° WSW 18:43:55 31° NW 18:48:55 10° NNE
Cosmos 1140 Rocket 3.4 18:39:18 10° NNW 18:44:35 80° ENE 18:47:38 26° SSE
Cosmos 2058 4.0 18:41:40 10° S 18:43:58 31° SSE 18:43:58 31° SSE
ATLAS 5 CENTAUR R/B 3.5 18:42:11 10° NW 18:46:42 82° NE 19:05:04 10° SE
SL-24 R/B 4.5 18:50:26 55° E 18:50:57 58° ENE 18:56:20 10° N
Starlink T 4.1 18:49:54 10° WNW 18:52:29 42° WSW 18:52:29 42° WSW
YAOGAN 1 4.2 18:49:27 10° SSW 18:53:25 35° W 18:57:24 10° NNW
DMSP B5D1-3 4.5 18:48:27 10° NNE 18:53:35 85° WNW 18:58:41 10° SSW
NOSS 3-3 (A) 4.5 18:46:18 10° NW 18:53:42 86° SW 18:59:19 23° SE
NOSS 3-3 (C) 4.5 18:46:24 10° NW 18:53:47 86° SW 18:59:20 23° SE
Starlink N 4.2 18:52:02 10° WNW 18:54:32 40° WSW 18:54:32 40° WSW
Cosmos 1943 3.6 18:51:42 10° NW 18:57:18 64° WSW 19:02:52 10° SSE
Starlink Q 4.4 18:54:24 10° WNW 18:56:49 38° WSW 18:56:49 38° WSW
Starlink P 4.5 18:56:37 10° WNW 18:58:57 36° WSW 18:58:57 36° WSW
H-2A R/B 1.9 19:04:42 70° ENE 19:04:42 70° ENE 19:09:49 10° N
ISS -2.1 19:04:35 10° W 19:06:37 34° WNW 19:06:37 34° WNW
ATLAS 3B R/B 4.4 19:03:24 10° SSE 19:04:32 14° SSE 19:04:32 14° SSE
USA 267 3.5 19:06:36 40° NE 19:08:59 63° NNW 19:15:26 10° W
CZ-4 R/B 4.2 19:06:40 10° SW 19:09:40 19° W 19:12:42 10° NW
Cosmos 1954 Rocket 3.9 19:06:55 10° NNW 19:12:17 87° WSW 19:13:02 67° SSE
Cosmos 2084 4.0 19:12:00 10° NW 19:15:33 56° WNW 19:15:33 56° WNW
NOSS 3-2 (C) 4.3 19:11:15 10° S 19:14:42 33° SSE 19:14:42 33° SSE
Timation 1 Rocket 4.2 19:17:24 10° SSW 19:23:24 87° WNW 19:24:16 68° NNE
CENTAUR R/B 3.8 19:18:21 10° S 19:20:42 24° S 19:20:42 24° S
ATLAS 5 CENTAUR R/B 3.6 19:22:51 10° NW 19:26:16 25° N 19:26:16 25° N
Cosmos 1371 Rocket 4.1 19:23:11 10° SSW 19:28:21 70° WNW 19:28:28 70° NW
Cosmos 2082 Rocket 4.2 19:29:09 10° N 19:30:52 15° N 19:30:52 15° N
NOSS 3-2 (A) 3.4 19:27:24 10° SW 19:32:41 72° S 19:32:41 72° S
SPOT 3 Rocket 4.5 19:36:56 40° NNW 19:36:56 40° NNW 19:40:11 10° NNW
ADEOS Rocket 4.0 19:45:32 10° N 19:52:03 54° WNW 19:59:11 10° SW
ARGOS 4.3 20:08:50 41° WNW 20:08:50 41° WNW 20:13:12 10° NNW
CZ-2C R/B 4.3 20:13:14 42° WNW 20:13:14 42° WNW 20:17:52 10° NNW
USA 238 DEB 4.0 20:08:04 10° WSW 20:13:54 60° WNW 20:13:54 60° WNW
USA 238 4.1 20:08:11 10° WSW 20:13:57 60° W 20:13:57 60° W
Cosmos 2263 Rocket 3.5 20:13:13 10° WSW 20:17:33 35° WNW 20:17:33 35° WNW
H-2A R/B 4.4 20:45:18 19° WNW 20:45:18 19° WNW 20:48:18 10° NW
USA 267 4.5 20:53:55 36° NW 20:53:55 36° NW 20:57:51 10° WNW
